Location: Ferma
(41.9500°N, 44.5167°E)
Time: 19:06:28
(UTC+00:00)

H-2A R/B - Pass Details

Date: 24 October 2021
Orbit: 577 x 654 km, 98.5° (Epoch: 02 December)

Event Time Altitude Azimuth Distance (km) Brightness Sun altitude
Exits shadow 15:36:39 27° 49° (NE) 1,150 3.0 -17.3°
Maximum altitude 15:38:23 41° 99° (E) 868 2.3 -17.7°
Drops below altitude 10° 15:42:21 10° 171° (S) 1,937 4.5 -18.4°
Sets 15:44:38 0° 178° (S) 2,848 5.4 -18.8°
